ATLAS 5 CENTAUR DEB, 43985

Orbit data source: Space-Track

ATLAS 5 CENTAUR DEB, 43985 is space debris in HEO originally from a launch on Wed, 17 Sep 2014 UTC launched from the Air Force Eastern Test Range (AFETR). Debris objects in space refer to the collection of defunct objects orbiting the Earth. Examples of debris include non-operational satellites, rocket bodies, and fragments generated from explosions, collisions, or faulty payload assembly.

Loading next visibility...
Identifier
43985, 2014-055AQ
Orbit
HEO
Country
Flag of USUS
Related business
Flag of USUnited Launch Alliance/Lockheed Martin (US)
Manufacturer
Unknown
Mission
Spacecraft
Bus & Motor
Unknown
Mass
Unknown
Launch date (UTC)
Icon of a cake. It is the launch day of the satellite!2014-09-17 (11 years ago)
Launch vehicle
Unknown
Launch site
Air Force Eastern Test Range (AFETR)
Object type
Payload
Rocket body
Debris
Shape & HBR
Unknown
Radar Cross Section
Small (<0.1 m²)

Expand to show TLE details & history
Last TLE update: 2 days ago

TLE from 2 days ago
0 ATLAS 5 CENTAUR DEB
1 43985U 14055AQ  25259.34990120 -.00000015  00000-0  00000-0 0  9992
2 43985  19.1587 199.4657 4796264  63.1551 337.5541  1.76750453  7184
Epoch: 2025-09-16T08:23Z
TLE epoch observation values (Epoch: 2025-09-16T08:23:51.463Z)
Latitude
0.00003°
Longitude
77.90284°
Altitude
11,938.471 km
Speed
5.452 km/s
True Right ascension
13h 17m 38s
True Declination
0° 00' 00"
Sunlit
Object was in daylight at epoch
Visualization orbit readout
Latitude
Unknown
Longitude
Unknown
Altitude
Unknown
Speed
Unknown
Apparent Right ascension
Unknown
Apparent Declination
Unknown
Sunlit
N/A
Visualization observer readout
Local Sidereal Time
16:08:09
Azimuth
Unknown
Elevation
Unknown
Doppler factor
Unknown
Orbital elements
Apogee altitude
36,379.03 km
Perigee altitude
8,659.24 km
Semi-major axis
28,897.272 km
Eccentricity
0.47963
Inclination
19.1587°
RAAN
199.4657°
Arg. of periapsis
63.1551°
True anomaly
296.68081°
Mean anomaly
337.5541°
Eccentric anomaly
319.82613°
Mean motion
0.44183 °/min
Orbital period
814.79 mins
BSTAR
0
Loading maneuver chart data...
Computing Atmospheric mass density...

Documentation

Showing up to 5 results
|